Location: Stockholm
(59.3293°N, 18.0686°E)
Time: 06:54:10
(UTC+01:00)

Amateur Radio Satellites - All Passes

Search period start: 11 December 2017 06:24
Search period end: 12 December 2017 06:24
Location: Stockholm, 59.3293°N, 18.0686°E

Satellite Date Start Highest point End Downlink Frequencies (MHz)
Time Altitude Azimuth
NUDT-PHONESAT 11 Dec 06:24:43 06:28:29 70° 104° (ESE) 06:32:14 437.300
TIGRISAT 11 Dec 06:24:46 06:27:04 14° 46° (NE) 06:29:21 435.000
ZACube-1 11 Dec 06:26:04 06:26:29 10° 80° (E) 06:26:54 437.345
UNISAT 6 11 Dec 06:26:31 06:29:02 15° 47° (NE) 06:31:33 437.425
XW-2F 11 Dec 06:32:24 06:36:16 80° 288° (WNW) 06:40:07 145.980 - 146.000
XW-2A 11 Dec 06:35:40 06:37:20 13° 87° (E) 06:39:00 145.665 - 145.685
XW-2C 11 Dec 06:43:29 06:47:19 61° 291° (WNW) 06:51:07 145.795 - 145.815
M-CUBED/EXP-1 PRIME 11 Dec 06:50:34 06:52:54 14° 331° (NNW) 06:55:13 437.505
AO-7 11 Dec 06:52:01 06:59:05 32° 328° (NNW) 07:06:09 .
PRISM 11 Dec 06:52:10 06:53:35 12° 42° (NE) 06:55:02 437.425
Oscar 11 11 Dec 06:52:35 06:54:05 11° 81° (E) 06:55:34 .
SEEDS 11 Dec 06:58:52 07:02:59 44° 98° (E) 07:07:04 437.485
AO-73 11 Dec 07:00:48 07:03:44 18° 87° (E) 07:06:41 145.935
CUTE 1.7 + AOD 2 11 Dec 07:13:08 07:17:28 81° 104° (ESE) 07:21:47 437.475
LilacSat-2 11 Dec 07:14:32 07:18:04 33° 298° (WNW) 07:21:34 437.200
CUBEBUG 2 11 Dec 07:15:50 07:19:58 57° 101° (ESE) 07:24:09 437.445
CUTE-I 11 Dec 07:16:57 07:22:16 62° 295° (WNW) 07:27:31 437.470
BEESAT 2 11 Dec 07:19:53 07:20:48 11° 247° (WSW) 07:21:43 435.950
UWE-3 11 Dec 07:24:42 07:28:46 44° 99° (E) 07:32:54 435.000/436.395/437.385
FO-29 11 Dec 07:27:11 07:34:59 71° 257° (WSW) 07:42:49 435.910
AAUSAT CUBESAT 2 11 Dec 07:31:17 07:35:18 43° 98° (E) 07:39:18 437.432
XW-2D 11 Dec 07:35:11 07:38:21 24° 302° (WNW) 07:41:29 145.860 - 145.880
STRAND 1 11 Dec 07:39:25 07:43:20 22° 272° (W) 07:47:15 437.568
DOVE 4 11 Dec 07:40:20 07:42:47 14° 320° (NW) 07:45:12 437.250
YUBILEINY 11 Dec 07:47:24 07:53:09 18° 340° (NNW) 07:58:53 435.215
XW-2B 11 Dec 07:51:06 07:53:57 20° 305° (NW) 07:56:47 145.730 - 145.750
KAITUO 1B 11 Dec 07:54:57 07:57:55 22° 304° (NW) 08:00:52 145.475/437.950
TIGRISAT 11 Dec 07:58:47 08:02:59 56° 67° (ENE) 08:07:11 435.000
NUDT-PHONESAT 11 Dec 07:59:07 08:01:58 21° 304° (NW) 08:04:49 437.300
ZACube-1 11 Dec 07:59:34 08:03:45 53° 101° (E) 08:08:00 437.345
UNISAT 6 11 Dec 08:00:48 08:05:03 63° 68° (ENE) 08:09:17 437.425
AO-85 11 Dec 08:01:17 08:04:19 17° 243° (WSW) 08:07:28 145.980
O/OREOS (USA 219) 11 Dec 08:03:39 08:05:57 14° 99° (E) 08:08:15 437.305
XW-2A 11 Dec 08:07:06 08:10:34 89° 283° (WNW) 08:14:00 145.665 - 145.685
XW-2F 11 Dec 08:07:24 08:09:49 16° 309° (NW) 08:12:14 145.980 - 146.000
HO-68 11 Dec 08:11:56 08:19:05 70° 298° (WNW) 08:26:11 435.675
XW-2C 11 Dec 08:18:52 08:20:47 13° 312° (NW) 08:22:42 145.795 - 145.815
POLYITAN 1 11 Dec 08:20:42 08:22:18 12° 43° (NE) 08:23:54 437.675
PRISM 11 Dec 08:23:59 08:27:56 42° 63° (ENE) 08:31:53 437.425
Oscar 11 11 Dec 08:26:51 08:31:10 58° 101° (E) 08:35:29 .
SEEDS 11 Dec 08:34:43 08:38:38 35° 299° (WNW) 08:42:31 437.485
AO-73 11 Dec 08:36:17 08:40:34 88° 287° (WNW) 08:44:55 145.935
AIST 2D 11 Dec 08:37:50 08:40:33 21° 58° (ENE) 08:43:17 435.315
Max Valier Satellite 11 Dec 08:43:41 08:46:16 18° 89° (E) 08:48:52 145.860
AO-7 11 Dec 08:43:45 08:49:40 22° 355° (N) 08:55:35 .
QB50P2 11 Dec 08:44:30 08:47:17 17° 49° (NE) 08:50:04 145.880/145.840
CUTE 1.7 + AOD 2 11 Dec 08:49:33 08:52:53 22° 306° (NW) 08:56:13 437.475
CUBEBUG 2 11 Dec 08:52:51 08:56:24 28° 302° (WNW) 09:00:00 437.445
DUCHIFAT 1 11 Dec 08:56:51 08:59:30 17° 49° (NE) 09:02:10 145.980
CUTE-I 11 Dec 08:57:43 09:01:28 20° 318° (NW) 09:05:12 437.470
UWE-3 11 Dec 09:01:22 09:05:12 34° 299° (WNW) 09:09:04 435.000/436.395/437.385
AAUSAT CUBESAT 2 11 Dec 09:06:53 09:10:43 35° 299° (WNW) 09:14:32 437.432
DELFI C3 11 Dec 09:13:33 09:17:22 42° 98° (E) 09:21:08 145.870
FO-29 11 Dec 09:15:16 09:21:20 24° 280° (W) 09:27:26 435.910
NANOSAT C BR1 11 Dec 09:19:46 09:23:10 25° 55° (NE) 09:26:36 145.865
EO-88 11 Dec 09:21:31 09:24:43 27° 94° (E) 09:27:54 145.990 - 145.960
NO-84 11 Dec 09:28:51 09:31:44 26° 156° (SSE) 09:34:49 435.350 FM
EO-79 11 Dec 09:31:44 09:35:28 32° 59° (ENE) 09:39:12 145.935-145.965
ZACube-1 11 Dec 09:36:10 09:39:53 30° 301° (WNW) 09:43:40 437.345
TIGRISAT 11 Dec 09:36:21 09:40:00 27° 267° (W) 09:43:39 435.000
UNISAT 6 11 Dec 09:38:37 09:42:09 24° 269° (W) 09:45:41 437.425
O/OREOS (USA 219) 11 Dec 09:39:59 09:44:31 63° 120° (ESE) 09:49:04 437.305
XW-2A 11 Dec 09:40:45 09:42:46 15° 307° (NW) 09:44:49 145.665 - 145.685
YUBILEINY 11 Dec 09:49:12 09:54:36 17° 14° (NNE) 09:59:58 435.215
POLYITAN 1 11 Dec 09:53:11 09:57:10 45° 64° (ENE) 10:01:12 437.675
BUGSAT 1 11 Dec 09:54:25 09:56:57 16° 49° (NE) 09:59:28 437.445
ESTCUBE 1 11 Dec 09:55:44 09:57:52 13° 82° (E) 10:00:00 437.505/2401.250
PRISM 11 Dec 09:59:27 10:03:17 35° 263° (W) 10:07:09 437.425
HO-68 11 Dec 10:00:00 10:05:53 28° 322° (NW) 10:11:43 435.675
Oscar 11 11 Dec 10:03:21 10:07:07 29° 302° (WNW) 10:10:52 .
LO-87 11 Dec 10:06:25 10:08:31 15° 88° (E) 10:10:36 145.935 - 145.965
AIST 2D 11 Dec 10:09:57 10:13:26 60° 258° (WSW) 10:16:58 435.315
Oscar 19 11 Dec 10:11:27 10:15:18 22° 46° (NE) 10:19:11 437.125/150
SEEDS 11 Dec 10:13:02 10:13:14 10° 320° (NW) 10:13:26 437.485
AO-73 11 Dec 10:13:14 10:16:19 20° 308° (NW) 10:19:26 145.935
Max Valier Satellite 11 Dec 10:16:48 10:20:32 72° 289° (WNW) 10:24:14 145.860
QB50P2 11 Dec 10:18:16 10:22:28 75° 71° (ENE) 10:26:41 145.880/145.840
Gurwin Techsat 1B 11 Dec 10:19:39 10:23:33 21° 44° (NE) 10:27:27 435.225
DUCHIFAT 1 11 Dec 10:30:23 10:34:32 72° 70° (ENE) 10:38:43 145.980
AO-7 11 Dec 10:33:33 10:40:03 27° 22° (NNE) 10:46:34 .
DELFI C3 11 Dec 10:48:27 10:52:03 33° 299° (WNW) 10:55:37 145.870
NANOSAT C BR1 11 Dec 10:54:25 10:58:35 67° 256° (WSW) 11:02:46 145.865
EO-88 11 Dec 10:54:59 10:58:30 43° 294° (WNW) 11:02:01 145.990 - 145.960
AO-91 11 Dec 10:56:06 11:00:13 30° 59° (ENE) 11:04:01 145.960
NO-84 11 Dec 11:05:10 11:08:30 42° 177° (S) 11:12:05 435.350 FM
EO-79 11 Dec 11:07:02 11:11:07 49° 260° (W) 11:15:13 145.935-145.965
ITAMSAT 1 11 Dec 11:17:27 11:19:13 12° 30° (NNE) 11:20:59 435.822/435.867
O/OREOS (USA 219) 11 Dec 11:20:00 11:24:14 36° 322° (NW) 11:28:30 437.305
SPROUT 11 Dec 11:24:05 11:27:17 20° 89° (E) 11:30:29 437.525
BUGSAT 1 11 Dec 11:27:40 11:31:42 73° 70° (ENE) 11:35:45 437.445
M-CUBED/EXP-1 PRIME 11 Dec 11:27:50 11:30:57 19° 37° (NE) 11:34:10 437.505
POLYITAN 1 11 Dec 11:29:18 11:33:06 33° 264° (W) 11:36:56 437.675
ESTCUBE 1 11 Dec 11:31:03 11:35:37 63° 103° (ESE) 11:40:07 437.505/2401.250
LO-87 11 Dec 11:38:51 11:42:25 80° 288° (WNW) 11:45:57 145.935 - 145.965
VELOX 1 11 Dec 11:47:03 11:50:31 22° 90° (E) 11:53:56 145.980
YUBILEINY 11 Dec 11:47:27 11:55:09 31° 46° (NE) 12:02:47 435.215
HO-68 11 Dec 11:47:29 11:51:33 16° 348° (NNW) 11:55:37 435.675
Oscar 19 11 Dec 11:48:49 11:53:57 74° 68° (ENE) 11:59:08 437.125/150
Max Valier Satellite 11 Dec 11:51:41 11:53:45 14° 309° (NW) 11:55:49 145.860
QB50P2 11 Dec 11:55:37 11:58:46 20° 271° (W) 12:01:55 145.880/145.840
Gurwin Techsat 1B 11 Dec 11:57:28 12:02:44 68° 66° (ENE) 12:08:03 435.225
DUCHIFAT 1 11 Dec 12:07:30 12:10:40 21° 270° (W) 12:13:52 145.980
AO-7 11 Dec 12:23:20 12:31:15 50° 48° (NE) 12:39:11 .
RS-15 11 Dec 12:29:51 12:32:11 11° 83° (E) 12:34:30 29.354- 29.394
AO-91 11 Dec 12:31:41 12:36:31 61° 257° (WSW) 12:40:53 145.960
NANOSAT C BR1 11 Dec 12:33:16 12:35:07 13° 277° (W) 12:36:58 145.865
50 SAT 11 Dec 12:37:52 12:39:27 13° 88° (E) 12:41:01 437.505
NO-84 11 Dec 12:42:04 12:45:22 32° 198° (SSW) 12:48:52 435.350 FM
UKube-1 11 Dec 12:49:32 12:52:05 15° 86° (E) 12:54:37 .
ITAMSAT 1 11 Dec 12:52:45 12:57:18 31° 53° (NE) 13:01:50 435.822/435.867
DX 1 11 Dec 12:55:50 12:59:23 24° 91° (E) 13:02:54 434.975-435.025
SPROUT 11 Dec 12:59:25 13:03:40 75° 290° (WNW) 13:07:54 437.525
M-CUBED/EXP-1 PRIME 11 Dec 13:00:13 13:04:33 59° 58° (ENE) 13:09:08 437.505
O/OREOS (USA 219) 11 Dec 13:01:40 13:04:55 19° 347° (NNW) 13:08:08 437.305
BUGSAT 1 11 Dec 13:04:33 13:07:32 19° 270° (W) 13:10:31 437.445
ESTCUBE 1 11 Dec 13:08:15 13:12:10 29° 304° (NW) 13:16:04 437.505/2401.250
LO-87 11 Dec 13:13:16 13:15:17 15° 308° (NW) 13:17:17 145.935 - 145.965
VELOX 1 11 Dec 13:23:00 13:27:28 75° 290° (WNW) 13:31:52 145.980
Oscar 19 11 Dec 13:29:30 13:33:48 26° 269° (W) 13:38:10 437.125/150
HO-68 11 Dec 13:32:39 13:36:48 17° 14° (NNE) 13:40:56 435.675
Gurwin Techsat 1B 11 Dec 13:38:30 13:43:09 30° 268° (W) 13:47:49 435.225
YUBILEINY 11 Dec 13:44:38 13:53:34 78° 73° (ENE) 14:02:24 435.215
CUTE-I 11 Dec 13:53:07 13:55:14 12° 31° (NNE) 13:57:23 437.470
DOVE 4 11 Dec 14:01:09 14:05:27 26° 53° (NE) 14:09:37 437.250
50 SAT 11 Dec 14:08:41 14:11:53 78° 288° (WNW) 14:15:02 437.505
AO-91 11 Dec 14:11:34 14:13:45 13° 276° (W) 14:15:51 145.960
AO-7 11 Dec 14:15:36 14:23:53 68° 252° (WSW) 14:32:15 .
NO-84 11 Dec 14:19:49 14:21:55 14° 218° (SW) 14:24:04 435.350 FM
CUBESAT XI-V 11 Dec 14:21:02 14:21:31 10° 78° (ENE) 14:22:01 437.345
UKube-1 11 Dec 14:24:29 14:28:51 78° 107° (ESE) 14:33:10 .
BEESAT 11 Dec 14:28:37 14:32:26 23° 90° (E) 14:36:13 436.000
RS-15 11 Dec 14:29:53 14:40:39 38° 110° (ESE) 14:51:13 29.354- 29.394
ITAMSAT 1 11 Dec 14:31:14 14:36:27 72° 254° (WSW) 14:41:42 435.822/435.867
DX 1 11 Dec 14:31:37 14:35:59 67° 292° (WNW) 14:40:18 434.975-435.025
nSIGHT-1 11 Dec 14:34:06 14:36:20 17° 165° (SSE) 14:38:35 .
M-CUBED/EXP-1 PRIME 11 Dec 14:35:17 14:39:12 31° 260° (W) 14:43:18 437.505
SPROUT 11 Dec 14:36:08 14:38:57 18° 311° (NW) 14:41:46 437.525
O/OREOS (USA 219) 11 Dec 14:42:44 14:45:58 19° 13° (NNE) 14:49:11 437.305
MOZHAYETS 4 11 Dec 14:42:53 14:47:12 38° 96° (E) 14:51:32
ITUPSAT 1 11 Dec 14:53:55 14:58:16 34° 95° (E) 15:02:36 437.325
LilacSat-2 11 Dec 14:58:12 15:00:34 16° 51° (NE) 15:02:56 437.200
VELOX 1 11 Dec 15:00:12 15:03:17 19° 312° (NW) 15:06:21 145.980
ISS 11 Dec 15:01:09 15:03:36 19° 168° (SSE) 15:06:02 437.550
HO-68 11 Dec 15:16:33 15:22:31 29° 39° (NE) 15:28:28 435.675
XW-2D 11 Dec 15:17:27 15:20:17 20° 55° (NE) 15:23:08 145.860 - 145.880
CUTE-I 11 Dec 15:29:10 15:33:54 33° 53° (NE) 15:38:39 437.470
SO-50 11 Dec 15:32:20 15:34:06 12° 112° (ESE) 15:35:53 436.795
XW-2B 11 Dec 15:32:46 15:35:54 25° 58° (ENE) 15:39:04 145.730 - 145.750
KAITUO 1B 11 Dec 15:35:58 15:38:53 22° 56° (NE) 15:41:49 145.475/437.950
DOVE 4 11 Dec 15:37:23 15:42:42 85° 257° (WSW) 15:47:49 437.250
NUDT-PHONESAT 11 Dec 15:39:24 15:42:17 22° 56° (ENE) 15:45:11 437.300
50 SAT 11 Dec 15:41:53 15:43:18 12° 309° (NW) 15:44:44 437.505
YUBILEINY 11 Dec 15:41:54 15:49:47 38° 279° (W) 15:57:37 435.215
XW-2F 11 Dec 15:48:08 15:51:29 31° 61° (ENE) 15:54:53 145.980 - 146.000
CUBESAT XI-V 11 Dec 15:55:29 16:00:05 48° 99° (E) 16:04:40 437.345
XW-2C 11 Dec 15:59:20 16:02:54 39° 64° (ENE) 16:06:30 145.795 - 145.815
UKube-1 11 Dec 16:01:02 16:04:28 23° 307° (NW) 16:07:54 .
BEESAT 11 Dec 16:05:57 16:10:44 77° 292° (WNW) 16:15:31 436.000
DX 1 11 Dec 16:08:40 16:11:29 17° 313° (NW) 16:14:18 434.975-435.025
nSIGHT-1 11 Dec 16:09:20 16:11:50 21° 185° (S) 16:14:20 .
AO-7 11 Dec 16:12:08 16:18:20 22° 277° (W) 16:24:35 .
ITAMSAT 1 11 Dec 16:13:29 16:16:52 17° 276° (W) 16:20:15 435.822/435.867
MOZHAYETS 4 11 Dec 16:20:05 16:24:29 45° 297° (WNW) 16:28:52
STARS 11 Dec 16:20:45 16:22:12 11° 82° (E) 16:23:38 437.465
O/OREOS (USA 219) 11 Dec 16:22:24 16:26:38 36° 37° (NE) 16:30:50 437.305
SEEDS 11 Dec 16:24:54 16:28:05 21° 53° (NE) 16:31:17 437.485
LilacSat-2 11 Dec 16:30:25 16:34:15 77° 72° (ENE) 16:38:08 437.200
ITUPSAT 1 11 Dec 16:31:41 16:36:20 53° 296° (WNW) 16:40:59 437.325
AO-73 11 Dec 16:32:29 16:33:25 11° 41° (NE) 16:34:21 145.935
ISS 11 Dec 16:36:51 16:39:23 21° 188° (S) 16:41:55 437.550
CUTE 1.7 + AOD 2 11 Dec 16:39:12 16:43:04 34° 61° (ENE) 16:46:58 437.475
RS-15 11 Dec 16:39:26 16:51:48 81° 137° (SE) 17:03:49 29.354- 29.394
CUBEBUG 2 11 Dec 16:47:06 16:50:40 28° 58° (ENE) 16:54:12 437.445
XW-2D 11 Dec 16:50:16 16:54:04 75° 256° (WSW) 16:57:55 145.860 - 145.880
UWE-3 11 Dec 16:55:26 16:58:39 22° 54° (NE) 17:01:53 435.000/436.395/437.385
AAUSAT CUBESAT 2 11 Dec 16:55:58 16:59:02 20° 52° (NE) 17:02:06 437.432
KKS-1 11 Dec 17:01:04 17:05:21 43° 99° (E) 17:09:35 437.445
HO-68 11 Dec 17:02:13 17:09:23 74° 63° (ENE) 17:16:34 435.675
XW-2B 11 Dec 17:06:07 17:09:51 56° 259° (W) 17:13:38 145.730 - 145.750
CUTE-I 11 Dec 17:08:18 17:13:40 70° 255° (WSW) 17:19:04 437.470
KAITUO 1B 11 Dec 17:08:47 17:12:31 67° 257° (WSW) 17:16:19 145.475/437.950
SO-50 11 Dec 17:09:15 17:13:34 48° 134° (SE) 17:17:58 436.795
NUDT-PHONESAT 11 Dec 17:12:08 17:15:49 65° 257° (WSW) 17:19:33 437.300
XW-2A 11 Dec 17:14:53 17:17:28 21° 58° (ENE) 17:20:05 145.665 - 145.685
DOVE 4 11 Dec 17:17:10 17:21:03 21° 274° (W) 17:24:52 437.250
XW-2F 11 Dec 17:21:54 17:25:30 42° 261° (W) 17:29:10 145.980 - 146.000
ZACube-1 11 Dec 17:29:02 17:32:26 25° 56° (NE) 17:35:51 437.345
CUBESAT XI-V 11 Dec 17:33:03 17:37:25 38° 300° (WNW) 17:41:45 437.345
XW-2C 11 Dec 17:33:43 17:37:09 32° 265° (W) 17:40:39 145.795 - 145.815
YUBILEINY 11 Dec 17:41:17 17:43:52 12° 305° (NW) 17:46:27 435.215
BEESAT 11 Dec 17:44:24 17:47:54 21° 312° (NW) 17:51:23 436.000
nSIGHT-1 11 Dec 17:45:46 17:47:15 13° 205° (SSW) 17:48:44 .
STARS 11 Dec 17:55:10 17:59:31 58° 103° (ESE) 18:03:49 437.465
Oscar 11 11 Dec 17:55:11 17:58:52 28° 57° (ENE) 18:02:34 .
MOZHAYETS 4 11 Dec 17:58:31 18:00:40 13° 319° (NW) 18:02:48
SEEDS 11 Dec 17:59:03 18:03:18 86° 254° (WSW) 18:07:36 437.485
STRAND 1 11 Dec 18:00:04 18:03:14 16° 83° (E) 18:06:24 437.568
O/OREOS (USA 219) 11 Dec 18:01:50 18:06:21 62° 240° (WSW) 18:10:47 437.305
AO-73 11 Dec 18:04:48 18:08:40 40° 63° (ENE) 18:12:34 145.935
LilacSat-2 11 Dec 18:06:24 18:09:02 17° 272° (W) 18:11:40 437.200
ITUPSAT 1 11 Dec 18:10:28 18:13:18 16° 318° (NW) 18:16:07 437.325
ISS 11 Dec 18:13:53 18:15:00 11° 208° (SSW) 18:16:09 437.550
CUTE 1.7 + AOD 2 11 Dec 18:14:44 18:18:50 46° 261° (W) 18:23:00 437.475
CUBEBUG 2 11 Dec 18:22:57 18:27:06 56° 259° (WSW) 18:31:13 437.445
XW-2D 11 Dec 18:27:18 18:28:57 12° 276° (W) 18:30:37 145.860 - 145.880
FO-29 11 Dec 18:28:08 18:32:45 17° 74° (ENE) 18:37:05 435.910
AAUSAT CUBESAT 2 11 Dec 18:29:48 18:34:00 89° 247° (WSW) 18:38:14 437.432
UWE-3 11 Dec 18:30:35 18:34:44 75° 255° (WSW) 18:38:54 435.000/436.395/437.385
DELFI C3 11 Dec 18:34:10 18:36:54 18° 52° (NE) 18:39:38 145.870
EO-88 11 Dec 18:37:10 18:38:03 11° 46° (NE) 18:38:57 145.990 - 145.960
KKS-1 11 Dec 18:37:46 18:41:54 38° 300° (WNW) 18:45:59 437.445
KAITUO 1B 11 Dec 18:46:10 18:47:16 11° 277° (W) 18:48:23 145.475/437.950
XW-2A 11 Dec 18:46:36 18:49:54 55° 258° (WSW) 18:53:15 145.665 - 145.685
SO-50 11 Dec 18:49:32 18:54:01 62° 336° (NNW) 18:58:36 436.795
NUDT-PHONESAT 11 Dec 18:49:43 18:50:27 10° 278° (W) 18:51:10 437.300
HO-68 11 Dec 18:51:07 18:57:42 37° 266° (W) 19:04:20 435.675
CUTE-I 11 Dec 18:51:16 18:54:44 17° 277° (W) 18:58:11 437.470
RS-15 11 Dec 18:52:40 19:05:01 70° 348° (NNW) 19:16:53 29.354- 29.394
ZACube-1 11 Dec 19:04:19 19:08:26 65° 257° (WSW) 19:12:36 437.345
CUBESAT XI-V 11 Dec 19:11:56 19:13:39 12° 322° (NW) 19:15:21 437.345
Oscar 11 11 Dec 19:30:29 19:34:46 60° 258° (WSW) 19:39:06 .
ESTCUBE 1 11 Dec 19:30:34 19:31:42 11° 37° (NE) 19:32:51 437.505/2401.250
Max Valier Satellite 11 Dec 19:30:46 19:34:02 31° 62° (ENE) 19:37:20 145.860
STARS 11 Dec 19:31:51 19:35:39 30° 304° (WNW) 19:39:26 437.465
SEEDS 11 Dec 19:36:57 19:39:39 16° 275° (W) 19:42:23 437.485
STRAND 1 11 Dec 19:38:15 19:43:23 71° 105° (ESE) 19:48:29 437.568
PCSat 11 Dec 19:39:23 19:44:25 41° 122° (ESE) 19:49:29 145.827
AO-73 11 Dec 19:41:09 19:44:59 36° 264° (W) 19:48:52 145.935
O/OREOS (USA 219) 11 Dec 19:42:46 19:44:53 13° 262° (W) 19:47:00 437.305
CUBEBUG 2 11 Dec 20:03:57 20:04:41 10° 279° (W) 20:05:25 437.445
DELFI C3 11 Dec 20:07:06 20:11:07 85° 71° (ENE) 20:15:09 145.870
AAUSAT CUBESAT 2 11 Dec 20:07:21 20:10:04 17° 274° (W) 20:12:49 437.432
EO-88 11 Dec 20:07:22 20:10:54 48° 67° (ENE) 20:14:27 145.990 - 145.960
UWE-3 11 Dec 20:09:50 20:11:59 14° 276° (W) 20:14:07 435.000/436.395/437.385
FO-29 11 Dec 20:12:14 20:19:38 57° 99° (E) 20:26:12 435.910
KKS-1 11 Dec 20:15:55 20:17:24 11° 322° (NW) 20:18:52 437.445
SO-50 11 Dec 20:30:43 20:35:06 43° 0° (N) 20:39:32 436.795
ZACube-1 11 Dec 20:44:02 20:45:36 12° 278° (W) 20:47:12 437.345
BEESAT 3 11 Dec 20:46:11 20:49:00 19° 121° (ESE) 20:51:50 437.485
LO-87 11 Dec 20:50:31 20:53:31 26° 60° (ENE) 20:56:31 145.935 - 145.965
SPROUT 11 Dec 20:52:47 20:54:44 13° 44° (NE) 20:56:40 437.525
ESTCUBE 1 11 Dec 21:03:15 21:07:22 35° 59° (ENE) 21:11:30 437.505/2401.250
Max Valier Satellite 11 Dec 21:04:21 21:07:48 39° 262° (W) 21:11:18 145.860
RS-15 11 Dec 21:06:39 21:18:55 75° 20° (NNE) 21:30:34 29.354- 29.394
Oscar 11 11 Dec 21:10:15 21:11:51 12° 279° (W) 21:13:27 .
TIGRISAT 11 Dec 21:17:08 21:21:03 34° 96° (E) 21:25:01 435.000
STRAND 1 11 Dec 21:17:50 21:22:16 31° 306° (NW) 21:26:41 437.568
BEESAT 2 11 Dec 21:18:00 21:20:04 14° 116° (ESE) 21:22:08 435.950
VELOX 1 11 Dec 21:18:42 21:21:21 16° 45° (NE) 21:23:59 145.980
UNISAT 6 11 Dec 21:19:20 21:23:22 37° 97° (E) 21:27:25 437.425
PCSat 11 Dec 21:22:13 21:27:39 70° 324° (NW) 21:33:07 145.827
PRISM 11 Dec 21:31:19 21:34:17 19° 89° (E) 21:37:14 437.425
EO-88 11 Dec 21:41:42 21:44:45 24° 267° (W) 21:47:50 145.990 - 145.960
DELFI C3 11 Dec 21:43:47 21:46:25 17° 273° (W) 21:49:04 145.870
FO-29 11 Dec 21:57:26 22:04:39 51° 303° (WNW) 22:11:10 435.910
SO-50 11 Dec 22:11:35 22:16:09 62° 24° (NNE) 22:20:48 436.795
UKube-1 11 Dec 22:19:25 22:21:02 12° 40° (NE) 22:22:38 .
BEESAT 3 11 Dec 22:21:59 22:26:00 75° 140° (SE) 22:30:00 437.485
LO-87 11 Dec 22:23:21 22:26:46 45° 260° (W) 22:30:13 145.935 - 145.965
AO-85 11 Dec 22:24:19 22:26:55 17° 117° (ESE) 22:29:37 145.980
SPROUT 11 Dec 22:25:39 22:29:45 49° 65° (ENE) 22:33:52 437.525
DX 1 11 Dec 22:25:49 22:28:36 17° 46° (NE) 22:31:22 434.975-435.025
NANOSAT C BR1 11 Dec 22:30:45 22:32:15 12° 82° (E) 22:33:44 145.865
ESTCUBE 1 11 Dec 22:39:41 22:44:05 49° 260° (W) 22:48:32 437.505/2401.250
EO-79 11 Dec 22:42:44 22:45:22 16° 86° (E) 22:47:59 145.935-145.965
VELOX 1 11 Dec 22:52:37 22:57:00 58° 66° (ENE) 23:01:24 145.980
BEESAT 2 11 Dec 22:53:03 22:57:02 56° 137° (SE) 23:01:02 435.950
TIGRISAT 11 Dec 22:53:48 22:57:54 45° 296° (WNW) 23:02:02 435.000
UNISAT 6 11 Dec 22:56:07 23:00:09 41° 297° (WNW) 23:04:14 437.425
AIST 2D 11 Dec 22:58:26 23:01:54 45° 99° (E) 23:05:20 435.315
STRAND 1 11 Dec 22:58:38 23:00:05 11° 329° (NNW) 23:01:31 437.568
POLYITAN 1 11 Dec 23:04:14 23:07:38 23° 91° (E) 23:11:01 437.675
PRISM 11 Dec 23:05:55 23:10:05 79° 288° (WNW) 23:14:11 437.425
PCSat 11 Dec 23:06:44 23:11:50 39° 350° (N) 23:16:56 145.827
50 SAT 11 Dec 23:12:06 23:14:36 21° 59° (ENE) 23:17:07 437.505
RS-15 11 Dec 23:19:42 23:31:33 67° 231° (SW) 23:42:46 29.354- 29.394
QB50P2 11 Dec 23:29:20 23:33:19 38° 97° (E) 23:37:16 145.880/145.840
DUCHIFAT 1 11 Dec 23:40:26 23:44:19 35° 97° (E) 23:48:10 145.980
FO-29 11 Dec 23:42:42 23:48:10 22° 328° (NNW) 23:53:20 435.910
UKube-1 11 Dec 23:51:59 23:56:03 41° 61° (ENE) 00:00:09 .
Oscar 19 11 Dec 23:52:01 23:54:36 14° 81° (E) 23:57:11 437.125/150
SO-50 11 Dec 23:52:10 23:56:38 50° 226° (SW) 00:01:10 436.795
DX 1 11 Dec 23:59:44 00:04:04 65° 68° (ENE) 00:08:27 434.975-435.025
BEESAT 3 11 Dec 23:59:55 00:03:47 44° 344° (NNW) 00:07:38 437.485
SPROUT 12 Dec 00:02:03 00:05:50 31° 266° (W) 00:09:39 437.525
AO-85 12 Dec 00:02:32 00:06:33 68° 140° (SE) 00:10:55 145.980
NANOSAT C BR1 12 Dec 00:04:40 00:08:51 62° 103° (ESE) 00:13:01 145.865
Gurwin Techsat 1B 12 Dec 00:05:18 00:07:57 14° 80° (E) 00:10:35 435.225
BEESAT 12 Dec 00:07:56 00:11:19 20° 47° (NE) 00:14:43 436.000
AO-91 12 Dec 00:13:50 00:15:24 12° 83° (E) 00:16:55 145.960
EO-79 12 Dec 00:17:33 00:21:48 85° 111° (ESE) 00:26:01 145.935-145.965
MOZHAYETS 4 12 Dec 00:17:49 00:21:28 24° 53° (NE) 00:25:08
VELOX 1 12 Dec 00:29:53 00:33:45 28° 267° (W) 00:37:38 145.980
BEESAT 2 12 Dec 00:30:53 00:34:51 51° 338° (NNW) 00:38:52 435.950
AIST 2D 12 Dec 00:31:54 00:34:55 26° 300° (WNW) 00:37:56 435.315
TIGRISAT 12 Dec 00:31:59 00:33:41 12° 317° (NW) 00:35:23 435.000
ITUPSAT 1 12 Dec 00:33:02 00:36:58 26° 52° (NE) 00:40:55 437.325
UNISAT 6 12 Dec 00:34:32 00:35:54 11° 319° (NW) 00:37:16 437.425
BUGSAT 1 12 Dec 00:35:13 00:38:54 33° 96° (E) 00:42:34 437.445
POLYITAN 1 12 Dec 00:39:37 00:43:49 65° 291° (WNW) 00:47:59 437.675
PRISM 12 Dec 00:41:58 00:44:46 18° 311° (NW) 00:47:35 437.425
50 SAT 12 Dec 00:43:16 00:46:22 47° 258° (WSW) 00:49:29 437.505
PCSat 12 Dec 00:51:09 00:56:19 41° 15° (NNE) 01:01:28 145.827
YUBILEINY 12 Dec 01:04:29 01:10:25 21° 67° (ENE) 01:16:23 435.215
QB50P2 12 Dec 01:05:12 01:09:09 39° 298° (WNW) 01:13:05 145.880/145.840
DUCHIFAT 1 12 Dec 01:16:07 01:20:03 41° 297° (WNW) 01:24:00 145.980
FO-29 12 Dec 01:27:05 01:30:45 14° 353° (N) 01:34:18 435.910
UKube-1 12 Dec 01:28:05 01:32:09 38° 262° (W) 01:36:13 .
Oscar 19 12 Dec 01:29:55 01:35:04 58° 102° (ESE) 01:40:13 437.125/150
CUBESAT XI-V 12 Dec 01:31:17 01:35:19 29° 56° (NE) 01:39:22 437.345
RS-15 12 Dec 01:32:41 01:41:47 27° 258° (WSW) 01:50:32 29.354- 29.394
SO-50 12 Dec 01:34:00 01:36:11 13° 247° (WSW) 01:38:22 436.795
DX 1 12 Dec 01:37:01 01:40:39 25° 268° (W) 01:44:17 434.975-435.025
BEESAT 3 12 Dec 01:38:12 01:41:59 38° 7° (N) 01:45:43 437.485
NANOSAT C BR1 12 Dec 01:40:47 01:44:18 26° 304° (WNW) 01:47:49 145.865
AO-85 12 Dec 01:43:08 01:47:11 49° 343° (NNW) 01:51:35 145.980
BEESAT 12 Dec 01:43:41 01:48:26 72° 69° (ENE) 01:53:12 436.000
Gurwin Techsat 1B 12 Dec 01:43:49 01:49:06 57° 102° (ESE) 01:54:20 435.225
AO-91 12 Dec 01:48:52 01:52:43 83° 107° (ESE) 01:56:13 145.960
STARS 12 Dec 01:53:14 01:53:34 10° 36° (NE) 01:53:54 437.465
MOZHAYETS 4 12 Dec 01:53:39 01:58:12 81° 253° (WSW) 02:02:49
EO-79 12 Dec 01:53:57 01:57:06 21° 308° (NW) 02:00:15 145.935-145.965
M-CUBED/EXP-1 PRIME 12 Dec 02:05:38 02:07:08 11° 87° (E) 02:08:37 437.505
AO-7 12 Dec 02:06:33 02:13:17 26° 86° (E) 02:19:58 .
BEESAT 2 12 Dec 02:09:23 02:13:13 37° 2° (N) 02:17:01 435.950
ITUPSAT 1 12 Dec 02:09:39 02:14:25 78° 254° (WSW) 02:19:13 437.325
BUGSAT 1 12 Dec 02:10:33 02:14:22 41° 297° (WNW) 02:18:10 437.445
POLYITAN 1 12 Dec 02:16:22 02:18:54 16° 313° (NW) 02:21:27 437.675
KKS-1 12 Dec 02:32:20 02:36:06 27° 55° (NE) 02:39:52 437.445
PCSat 12 Dec 02:34:52 02:40:21 82° 41° (NE) 02:45:48 145.827
ITAMSAT 1 12 Dec 02:34:55 02:38:50 21° 87° (E) 02:42:43 435.822/435.867
QB50P2 12 Dec 02:42:51 02:43:57 11° 319° (NW) 02:45:02 145.880/145.840
DUCHIFAT 1 12 Dec 02:53:27 02:54:46 11° 318° (NW) 02:56:05 145.980
YUBILEINY 12 Dec 02:56:51 03:05:28 62° 93° (E) 03:14:10 435.215
CUBESAT XI-V 12 Dec 03:07:45 03:12:24 65° 257° (WSW) 03:17:07 437.345
FO-29 12 Dec 03:08:41 03:13:04 16° 18° (NNE) 03:17:21 435.910
Oscar 19 12 Dec 03:09:31 03:14:15 36° 304° (WNW) 03:18:59 437.125/150
BEESAT 3 12 Dec 03:16:00 03:20:00 70° 31° (NNE) 03:23:56 437.485
BEESAT 12 Dec 03:22:47 03:26:42 25° 269° (W) 03:30:37 436.000
Gurwin Techsat 1B 12 Dec 03:24:02 03:28:56 38° 303° (WNW) 03:33:48 435.225
AO-85 12 Dec 03:24:09 03:28:18 42° 8° (N) 03:32:46 145.980
STARS 12 Dec 03:24:50 03:28:46 33° 58° (ENE) 03:32:42 437.465
AO-91 12 Dec 03:26:06 03:28:42 18° 309° (NW) 03:31:09 145.960
DOVE 4 12 Dec 03:28:04 03:30:50 15° 81° (E) 03:33:31 437.250
MOZHAYETS 4 12 Dec 03:33:12 03:36:08 17° 275° (W) 03:39:04
M-CUBED/EXP-1 PRIME 12 Dec 03:37:58 03:42:33 52° 107° (ESE) 03:46:58 437.505
BEESAT 2 12 Dec 03:47:28 03:51:30 58° 25° (NNE) 03:55:31 435.950
BUGSAT 1 12 Dec 03:47:48 03:48:48 11° 318° (NW) 03:49:49 437.445
STRAND 1 12 Dec 03:47:59 03:51:17 18° 42° (NE) 03:54:35 437.568
ITUPSAT 1 12 Dec 03:49:59 03:53:03 17° 274° (W) 03:56:08 437.325
AO-7 12 Dec 03:59:05 04:07:30 75° 110° (ESE) 04:15:54 .
KKS-1 12 Dec 04:07:54 04:12:22 67° 255° (WSW) 04:16:51 437.445
ITAMSAT 1 12 Dec 04:13:48 04:19:03 88° 111° (ESE) 04:24:15 435.822/435.867
PCSat 12 Dec 04:18:35 04:23:22 32° 242° (WSW) 04:28:08 145.827
XW-2B 12 Dec 04:31:27 04:31:55 10° 82° (E) 04:32:25 145.730 - 145.750
XW-2F 12 Dec 04:45:22 04:47:14 13° 84° (E) 04:49:05 145.980 - 146.000
CUBESAT XI-V 12 Dec 04:48:19 04:50:44 14° 278° (W) 04:53:10 437.345
FO-29 12 Dec 04:49:27 04:55:58 30° 43° (NE) 05:02:22 435.910
Oscar 19 12 Dec 04:50:01 04:52:20 13° 326° (NW) 04:54:38 437.125/150
BEESAT 3 12 Dec 04:53:45 04:57:19 32° 232° (SW) 05:00:50 437.485
YUBILEINY 12 Dec 04:54:06 05:02:40 51° 299° (WNW) 05:11:18 435.215
XW-2C 12 Dec 04:56:53 04:59:31 17° 88° (E) 05:02:07 145.795 - 145.815
STARS 12 Dec 05:00:41 05:04:59 51° 259° (WSW) 05:09:18 437.465
DOVE 4 12 Dec 05:04:40 05:09:29 73° 104° (ESE) 05:13:59 437.250
AO-85 12 Dec 05:04:44 05:09:12 75° 30° (NNE) 05:14:04 145.980
Gurwin Techsat 1B 12 Dec 05:05:03 05:07:37 14° 326° (NW) 05:10:12 435.225
M-CUBED/EXP-1 PRIME 12 Dec 05:12:29 05:16:49 38° 308° (NW) 05:21:00 437.505
CUTE-I 12 Dec 05:15:56 05:20:18 25° 89° (E) 05:24:38 437.470
STRAND 1 12 Dec 05:24:35 05:29:35 56° 64° (ENE) 05:34:36 437.568
BEESAT 2 12 Dec 05:25:20 05:29:13 45° 227° (SW) 05:33:03 435.950
LilacSat-2 12 Dec 05:28:32 05:32:05 32° 96° (E) 05:35:37 437.200
SEEDS 12 Dec 05:36:13 05:36:24 10° 79° (E) 05:36:33 437.485
XW-2D 12 Dec 05:47:22 05:51:07 45° 99° (E) 05:54:49 145.860 - 145.880
KKS-1 12 Dec 05:47:33 05:49:48 14° 276° (W) 05:52:04 437.445
CUTE 1.7 + AOD 2 12 Dec 05:50:19 05:53:27 19° 87° (E) 05:56:34 437.475
AO-7 12 Dec 05:52:09 05:59:58 46° 315° (NW) 06:07:48 .
ITAMSAT 1 12 Dec 05:53:47 05:58:02 26° 311° (NW) 06:02:17 435.822/435.867
XW-2B 12 Dec 06:03:06 06:06:56 60° 102° (ESE) 06:10:45 145.730 - 145.750
KAITUO 1B 12 Dec 06:04:14 06:07:57 48° 100° (E) 06:11:39 145.475/437.950
CUBEBUG 2 12 Dec 06:04:30 06:07:13 17° 86° (E) 06:09:57 437.445
NUDT-PHONESAT 12 Dec 06:06:26 06:10:06 48° 100° (E) 06:13:46 437.300
HO-68 12 Dec 06:07:18 06:13:41 33° 91° (E) 06:20:00 435.675
UWE-3 12 Dec 06:11:38 06:13:33 13° 83° (E) 06:15:28 435.000/436.395/437.385
